Hourly Weather Luki

Today, 17 May, Monday

Time Temperature Precipitation Wind Pressure Humidity
00:00 +14°C° 0 mm 2 mps 745 mmHg 93%
01:00 +13°C° 0 mm 2 mps 745 mmHg 94%
02:00 +12°C° 0 mm 3 mps 745 mmHg 95%
03:00 +12°C° 0.1 mm 3 mps 745 mmHg 94%
04:00 +13°C° 0.1 mm 3 mps 745 mmHg 94%
05:00 +14°C° 0.1 mm 2 mps 745 mmHg 94%
06:00 +14°C° 0 mm 3 mps 745 mmHg 88%
07:00 +17°C° 0 mm 3 mps 744 mmHg 83%
08:00 +18°C° 0 mm 4 mps 744 mmHg 77%
09:00 +19°C° 0.1 mm 4 mps 744 mmHg 76%
10:00 +19°C° 0.1 mm 3 mps 744 mmHg 75%
11:00 +20°C° 0.1 mm 3 mps 743 mmHg 74%
12:00 +21°C° 0.3 mm 3 mps 743 mmHg 73%
13:00 +21°C° 0.3 mm 4 mps 742 mmHg 73%
14:00 +22°C° 0.3 mm 4 mps 741 mmHg 72%
15:00 +22°C° 1.3 mm 4 mps 741 mmHg 75%
16:00 +21°C° 1.3 mm 4 mps 740 mmHg 78%
17:00 +21°C° 1.3 mm 4 mps 739 mmHg 80%
18:00 +20°C° 1.2 mm 4 mps 739 mmHg 85%
19:00 +18°C° 1.2 mm 3 mps 739 mmHg 90%
20:00 +17°C° 1.2 mm 3 mps 739 mmHg 95%
21:00 +16°C° 1.5 mm 2 mps 740 mmHg 96%
22:00 +16°C° 1.5 mm 2 mps 740 mmHg 97%
23:00 +15°C° 1.5 mm 1 mps 740 mmHg 98%

Tomorrow, 18 May, Tuesday

Time Temperature Precipitation Wind Pressure Humidity
00:00 +15°C° 1 mm 1 mps 739 mmHg 98%
01:00 +15°C° 1 mm 1 mps 739 mmHg 99%
02:00 +15°C° 1 mm 1 mps 739 mmHg 99%
03:00 +16°C° 0.5 mm 2 mps 739 mmHg 98%
04:00 +16°C° 0.5 mm 2 mps 739 mmHg 98%
05:00 +16°C° 0.5 mm 3 mps 739 mmHg 97%
06:00 +16°C° 0.4 mm 3 mps 739 mmHg 96%
07:00 +17°C° 0.4 mm 3 mps 739 mmHg 96%
08:00 +17°C° 0.4 mm 3 mps 739 mmHg 95%
09:00 +18°C° 0.1 mm 4 mps 739 mmHg 92%
10:00 +18°C° 0.1 mm 4 mps 740 mmHg 89%
11:00 +19°C° 0.1 mm 5 mps 740 mmHg 86%
12:00 +19°C° 0.2 mm 5 mps 740 mmHg 82%
13:00 +20°C° 0.2 mm 5 mps 740 mmHg 78%
14:00 +21°C° 0.2 mm 5 mps 740 mmHg 74%
15:00 +20°C° 0.8 mm 4 mps 740 mmHg 77%
16:00 +20°C° 0.8 mm 4 mps 739 mmHg 79%
17:00 +19°C° 0.8 mm 4 mps 739 mmHg 82%
18:00 +18°C° 1.2 mm 4 mps 739 mmHg 86%
19:00 +17°C° 1.2 mm 3 mps 739 mmHg 90%
20:00 +16°C° 1.2 mm 3 mps 740 mmHg 93%
21:00 +16°C° 0.2 mm 3 mps 740 mmHg 94%
22:00 +15°C° 0.2 mm 2 mps 739 mmHg 95%
23:00 +15°C° 0.2 mm 2 mps 739 mmHg 96%

Day after tomorrow, 19 May, Wednesday

Time Temperature Precipitation Wind Pressure Humidity
00:00 +15°C° 0 mm 2 mps 739 mmHg 96%
01:00 +14°C° 0 mm 2 mps 739 mmHg 96%
02:00 +13°C° 0 mm 2 mps 739 mmHg 97%
03:00 +13°C° 0 mm 2 mps 739 mmHg 97%
04:00 +14°C° 0 mm 2 mps 740 mmHg 97%
05:00 +14°C° 0 mm 2 mps 740 mmHg 97%
06:00 +15°C° 0 mm 2 mps 740 mmHg 93%
07:00 +16°C° 0 mm 3 mps 740 mmHg 90%
08:00 +18°C° 0 mm 3 mps 740 mmHg 87%
09:00 +18°C° 0.8 mm 3 mps 740 mmHg 84%
10:00 +19°C° 0.8 mm 3 mps 740 mmHg 81%
11:00 +20°C° 0.8 mm 4 mps 740 mmHg 79%
12:00 +20°C° 1.3 mm 4 mps 741 mmHg 78%
13:00 +20°C° 1.3 mm 4 mps 741 mmHg 78%
14:00 +20°C° 1.3 mm 4 mps 741 mmHg 78%
15:00 +20°C° 0.6 mm 3 mps 741 mmHg 78%
16:00 +20°C° 0.6 mm 3 mps 741 mmHg 79%
17:00 +20°C° 0.6 mm 3 mps 741 mmHg 79%
18:00 +18°C° 0.4 mm 2 mps 742 mmHg 83%
19:00 +17°C° 0.4 mm 2 mps 742 mmHg 87%
20:00 +15°C° 0.4 mm 1 mps 742 mmHg 91%
21:00 +15°C° 0 mm 1 mps 742 mmHg 92%
22:00 +14°C° 0 mm 1 mps 742 mmHg 93%
23:00 +14°C° 0 mm 1 mps 742 mmHg 94%

20 May, Thursday

Time Temperature Precipitation Wind Pressure Humidity
00:00 +14°C° 0.1 mm 2 mps 742 mmHg 94%
01:00 +14°C° 0.1 mm 2 mps 742 mmHg 95%
02:00 +14°C° 0.1 mm 2 mps 741 mmHg 96%
03:00 +14°C° 0.2 mm 2 mps 741 mmHg 97%
04:00 +13°C° 0.2 mm 3 mps 741 mmHg 97%
05:00 +13°C° 0.2 mm 3 mps 740 mmHg 97%
06:00 +13°C° 0.3 mm 3 mps 740 mmHg 97%
07:00 +14°C° 0.3 mm 3 mps 740 mmHg 96%
08:00 +14°C° 0.3 mm 3 mps 739 mmHg 96%
09:00 +14°C° 1.4 mm 3 mps 739 mmHg 96%
10:00 +14°C° 1.4 mm 3 mps 739 mmHg 97%
11:00 +15°C° 1.4 mm 2 mps 738 mmHg 97%
12:00 +14°C° 0.5 mm 3 mps 738 mmHg 96%
13:00 +14°C° 0.5 mm 3 mps 738 mmHg 95%
14:00 +14°C° 0.5 mm 3 mps 738 mmHg 94%
15:00 +14°C° 0.6 mm 3 mps 737 mmHg 93%
16:00 +14°C° 0.6 mm 3 mps 737 mmHg 93%
17:00 +15°C° 0.6 mm 2 mps 737 mmHg 92%
18:00 +13°C° 0.7 mm 3 mps 737 mmHg 93%
19:00 +13°C° 0.7 mm 3 mps 736 mmHg 94%
20:00 +12°C° 0.7 mm 3 mps 736 mmHg 95%
21:00 +12°C° 0.2 mm 3 mps 736 mmHg 96%
22:00 +11°C° 0.2 mm 4 mps 736 mmHg 96%
23:00 +10°C° 0.2 mm 4 mps 736 mmHg 96%

21 May, Friday

Time Temperature Precipitation Wind Pressure Humidity
00:00 +10°C° 0.2 mm 4 mps 736 mmHg 96%
01:00 +10°C° 0.2 mm 4 mps 736 mmHg 97%
02:00 +10°C° 0.2 mm 4 mps 735 mmHg 97%
03:00 +8°C° 0 mm 5 mps 735 mmHg 96%
04:00 +8°C° 0 mm 5 mps 736 mmHg 95%
05:00 +8°C° 0 mm 5 mps 736 mmHg 94%
06:00 +7°C° 0.4 mm 6 mps 736 mmHg 94%
07:00 +7°C° 0.4 mm 6 mps 736 mmHg 95%
08:00 +6°C° 0.4 mm 7 mps 736 mmHg 95%
09:00 +6°C° 1.4 mm 7 mps 737 mmHg 95%
10:00 +6°C° 1.4 mm 8 mps 738 mmHg 94%
11:00 +6°C° 1.4 mm 8 mps 739 mmHg 94%
12:00 +6°C° 0.8 mm 8 mps 740 mmHg 93%
13:00 +7°C° 0.8 mm 8 mps 741 mmHg 91%
14:00 +7°C° 0.8 mm 9 mps 742 mmHg 90%
15:00 +9°C° 0.2 mm 8 mps 743 mmHg 86%
16:00 +10°C° 0.2 mm 7 mps 743 mmHg 83%
17:00 +10°C° 0.2 mm 7 mps 744 mmHg 79%
18:00 +10°C° 0 mm 6 mps 744 mmHg 78%
19:00 +9°C° 0 mm 6 mps 745 mmHg 77%
20:00 +8°C° 0 mm 5 mps 745 mmHg 76%
21:00 +7°C° 0 mm 5 mps 746 mmHg 77%
22:00 +7°C° 0 mm 5 mps 746 mmHg 78%
23:00 +6°C° 0 mm 4 mps 747 mmHg 79%

22 May, Saturday

Time Temperature Precipitation Wind Pressure Humidity
00:00 +5°C° 0 mm 4 mps 747 mmHg 83%
01:00 +4°C° 0 mm 4 mps 747 mmHg 87%
02:00 +4°C° 0 mm 3 mps 747 mmHg 91%
03:00 +4°C° 0 mm 3 mps 747 mmHg 90%
04:00 +4°C° 0 mm 3 mps 748 mmHg 90%
05:00 +3°C° 0 mm 3 mps 748 mmHg 89%
06:00 +5°C° 0 mm 3 mps 748 mmHg 83%
07:00 +6°C° 0 mm 4 mps 748 mmHg 77%
08:00 +8°C° 0 mm 4 mps 748 mmHg 72%
09:00 +10°C° 0 mm 4 mps 749 mmHg 67%
10:00 +11°C° 0 mm 4 mps 749 mmHg 63%
11:00 +12°C° 0 mm 4 mps 749 mmHg 58%
12:00 +12°C° 0 mm 4 mps 749 mmHg 57%
13:00 +13°C° 0 mm 4 mps 749 mmHg 56%
14:00 +13°C° 0 mm 4 mps 750 mmHg 55%
15:00 +14°C° 0 mm 3 mps 750 mmHg 56%
16:00 +14°C° 0 mm 3 mps 750 mmHg 56%
17:00 +15°C° 0 mm 2 mps 750 mmHg 57%
18:00 +14°C° 0 mm 2 mps 750 mmHg 62%
19:00 +12°C° 0 mm 2 mps 750 mmHg 67%
20:00 +10°C° 0 mm 2 mps 750 mmHg 73%
21:00 +10°C° 0 mm 2 mps 750 mmHg 75%
22:00 +9°C° 0 mm 2 mps 751 mmHg 77%
23:00 +10°C° 0 mm 1 mps 751 mmHg 79%
Show more

We Need Your Consent

Meteoprog and our Service Providers may store and access personal data such as cookies, device identifiers or other similar technologies on your device and process such data to personalise content and ads, as well as provide social media features and to analyse the traffic.

  • Store and/or access information on your device

    Cookies, device identifiers or other information can be stored or accessed on your device for the purposes indicated above.

  • Personalised ads and content, ad and content measurement, audience insights, and products development

    Ads and content can be personalised based on a profile. More data can be added to better personalise ads and content. Ad and content performance can be measured. Insights about the audience who saw the ads and content can be derived. Such data can be used to develop or improve user’s experience, systems and software.

By clicking ‘I Agree’ you will allow the use of indicated cookies, device identifiers, web beacons or other similar technologies. Your settings can be changed in the browser on your device.

For certain purposes, legitimate interests may be relied on, rather than consent. You can read more about this in our Privacy and Cookie Policy.